When you browse on this site, cookies collect data to enhance your experience and personalize the content and advertising you see.
Visit our Privacy Policy to learn more. By continuing to use the site, you agree to this use of cookies and data.

Hourly Weather Akka

Today, 10 August, Monday

Time Temperature Precipitation Wind Pressure Humidity
00:00 +27°C° 0 mm 3 mps 754 mmHg 77%
01:00 +27°C° 0 mm 3 mps 754 mmHg 77%
02:00 +27°C° 0 mm 3 mps 754 mmHg 76%
03:00 +27°C° 0.1 mm 3 mps 754 mmHg 76%
04:00 +27°C° 0.1 mm 3 mps 754 mmHg 75%
05:00 +27°C° 0.1 mm 3 mps 754 mmHg 75%
06:00 +28°C° 0 mm 3 mps 755 mmHg 70%
07:00 +29°C° 0 mm 4 mps 755 mmHg 64%
08:00 +30°C° 0 mm 4 mps 755 mmHg 59%
09:00 +32°C° 0 mm 4 mps 755 mmHg 57%
10:00 +32°C° 0 mm 5 mps 755 mmHg 54%
11:00 +33°C° 0 mm 5 mps 755 mmHg 52%
12:00 +33°C° 0 mm 6 mps 755 mmHg 52%
13:00 +33°C° 0 mm 6 mps 755 mmHg 52%
14:00 +33°C° 0 mm 6 mps 755 mmHg 55%
15:00 +32°C° 0 mm 6 mps 755 mmHg 59%
16:00 +32°C° 0 mm 5 mps 755 mmHg 63%
17:00 +30°C° 0 mm 5 mps 755 mmHg 66%
18:00 +29°C° 0 mm 4 mps 755 mmHg 70%
19:00 +28°C° 0 mm 3 mps 755 mmHg 74%
20:00 +27°C° 0 mm 3 mps 756 mmHg 78%
21:00 +26°C° 0 mm 2 mps 756 mmHg 79%
22:00 +26°C° 0 mm 2 mps 756 mmHg 80%
23:00 +26°C° 0 mm 2 mps 756 mmHg 82%

Tomorrow, 11 August, Tuesday

Time Temperature Precipitation Wind Pressure Humidity
00:00 +26°C° 0 mm 1 mps 756 mmHg 81%
01:00 +26°C° 0 mm 1 mps 756 mmHg 80%
02:00 +26°C° 0 mm 1 mps 755 mmHg 79%
03:00 +26°C° 0 mm 1 mps 756 mmHg 80%
04:00 +26°C° 0 mm 1 mps 756 mmHg 81%
05:00 +26°C° 0 mm 1 mps 756 mmHg 81%
06:00 +27°C° 0 mm 2 mps 756 mmHg 75%
07:00 +29°C° 0 mm 3 mps 756 mmHg 68%
08:00 +30°C° 0 mm 3 mps 756 mmHg 62%
09:00 +32°C° 0 mm 4 mps 756 mmHg 59%
10:00 +33°C° 0 mm 4 mps 756 mmHg 56%
11:00 +33°C° 0 mm 5 mps 756 mmHg 54%
12:00 +33°C° 0 mm 5 mps 756 mmHg 54%
13:00 +33°C° 0 mm 5 mps 756 mmHg 54%
14:00 +33°C° 0 mm 6 mps 755 mmHg 54%
15:00 +33°C° 0 mm 5 mps 755 mmHg 57%
16:00 +32°C° 0 mm 5 mps 755 mmHg 60%
17:00 +30°C° 0 mm 4 mps 755 mmHg 63%
18:00 +29°C° 0 mm 4 mps 755 mmHg 68%
19:00 +28°C° 0 mm 3 mps 755 mmHg 73%
20:00 +27°C° 0 mm 3 mps 755 mmHg 78%
21:00 +27°C° 0 mm 3 mps 755 mmHg 80%
22:00 +27°C° 0 mm 2 mps 755 mmHg 81%
23:00 +27°C° 0 mm 2 mps 755 mmHg 83%

Day after tomorrow, 12 August, Wednesday

Time Temperature Precipitation Wind Pressure Humidity
00:00 +27°C° 0 mm 2 mps 755 mmHg 82%
01:00 +27°C° 0 mm 2 mps 755 mmHg 80%
02:00 +27°C° 0 mm 2 mps 754 mmHg 79%
03:00 +27°C° 0 mm 1 mps 754 mmHg 81%
04:00 +26°C° 0 mm 1 mps 754 mmHg 82%
05:00 +26°C° 0 mm 1 mps 755 mmHg 84%
06:00 +27°C° 0 mm 1 mps 755 mmHg 76%
07:00 +29°C° 0 mm 2 mps 755 mmHg 69%
08:00 +30°C° 0 mm 2 mps 755 mmHg 61%
09:00 +33°C° 0 mm 3 mps 755 mmHg 58%
10:00 +34°C° 0 mm 4 mps 755 mmHg 55%
11:00 +35°C° 0 mm 4 mps 755 mmHg 52%
12:00 +35°C° 0 mm 4 mps 755 mmHg 53%
13:00 +35°C° 0 mm 5 mps 754 mmHg 55%
14:00 +34°C° 0 mm 5 mps 754 mmHg 57%
15:00 +34°C° 0 mm 5 mps 754 mmHg 61%
16:00 +33°C° 0 mm 4 mps 754 mmHg 65%
17:00 +32°C° 0 mm 4 mps 754 mmHg 69%
18:00 +30°C° 0 mm 4 mps 754 mmHg 75%
19:00 +29°C° 0 mm 3 mps 754 mmHg 80%
20:00 +28°C° 0 mm 2 mps 755 mmHg 86%
21:00 +27°C° 0 mm 2 mps 754 mmHg 87%
22:00 +27°C° 0 mm 1 mps 754 mmHg 89%
23:00 +27°C° 0 mm 1 mps 754 mmHg 90%

13 August, Thursday

Time Temperature Precipitation Wind Pressure Humidity
00:00 +27°C° 0 mm 1 mps 754 mmHg 90%
01:00 +26°C° 0 mm 1 mps 754 mmHg 91%
02:00 +26°C° 0 mm 1 mps 754 mmHg 92%
03:00 +26°C° 0 mm 2 mps 754 mmHg 92%
04:00 +26°C° 0 mm 2 mps 753 mmHg 92%
05:00 +26°C° 0 mm 2 mps 753 mmHg 92%
06:00 +28°C° 0 mm 2 mps 754 mmHg 85%
07:00 +29°C° 0 mm 3 mps 754 mmHg 78%
08:00 +31°C° 0 mm 3 mps 754 mmHg 71%
09:00 +33°C° 0 mm 4 mps 754 mmHg 65%
10:00 +34°C° 0 mm 4 mps 754 mmHg 59%
11:00 +36°C° 0 mm 4 mps 754 mmHg 53%
12:00 +36°C° 0 mm 5 mps 753 mmHg 53%
13:00 +35°C° 0 mm 5 mps 753 mmHg 54%
14:00 +35°C° 0 mm 5 mps 753 mmHg 54%
15:00 +34°C° 0 mm 5 mps 753 mmHg 59%
16:00 +33°C° 0 mm 5 mps 752 mmHg 64%
17:00 +32°C° 0 mm 4 mps 752 mmHg 69%
18:00 +30°C° 0 mm 4 mps 753 mmHg 76%
19:00 +29°C° 0 mm 3 mps 753 mmHg 82%
20:00 +28°C° 0 mm 2 mps 753 mmHg 89%
21:00 +27°C° 0 mm 2 mps 753 mmHg 89%
22:00 +27°C° 0 mm 1 mps 753 mmHg 89%
23:00 +27°C° 0 mm 1 mps 753 mmHg 89%

14 August, Friday

Time Temperature Precipitation Wind Pressure Humidity
00:00 +27°C° 0 mm 1 mps 753 mmHg 89%
01:00 +26°C° 0 mm 1 mps 752 mmHg 88%
02:00 +26°C° 0 mm 1 mps 752 mmHg 88%
03:00 +26°C° 0 mm 1 mps 752 mmHg 88%
04:00 +26°C° 0 mm 1 mps 752 mmHg 89%
05:00 +25°C° 0 mm 2 mps 752 mmHg 89%
06:00 +27°C° 0 mm 2 mps 752 mmHg 80%
07:00 +29°C° 0 mm 2 mps 752 mmHg 72%
08:00 +31°C° 0 mm 3 mps 753 mmHg 64%
09:00 +34°C° 0 mm 4 mps 753 mmHg 58%
10:00 +35°C° 0 mm 4 mps 753 mmHg 52%
11:00 +37°C° 0 mm 5 mps 753 mmHg 47%
12:00 +36°C° 0 mm 5 mps 752 mmHg 49%
13:00 +36°C° 0 mm 5 mps 752 mmHg 50%
14:00 +36°C° 0 mm 5 mps 752 mmHg 52%
15:00 +35°C° 0 mm 5 mps 752 mmHg 56%
16:00 +34°C° 0 mm 4 mps 751 mmHg 61%
17:00 +33°C° 0 mm 4 mps 751 mmHg 65%
18:00 +31°C° 0 mm 3 mps 752 mmHg 73%
19:00 +29°C° 0 mm 2 mps 752 mmHg 81%
20:00 +28°C° 0 mm 2 mps 752 mmHg 89%
21:00 +27°C° 0 mm 1 mps 752 mmHg 89%
22:00 +27°C° 0 mm 1 mps 752 mmHg 89%
23:00 +27°C° 0 mm 1 mps 752 mmHg 89%

15 August, Saturday

Time Temperature Precipitation Wind Pressure Humidity
00:00 +27°C° 0 mm 1 mps 752 mmHg 87%
01:00 +26°C° 0 mm 1 mps 751 mmHg 86%
02:00 +26°C° 0 mm 1 mps 751 mmHg 85%
03:00 +26°C° 0 mm 1 mps 751 mmHg 85%
04:00 +26°C° 0 mm 2 mps 751 mmHg 85%
05:00 +25°C° 0 mm 2 mps 751 mmHg 86%
06:00 +27°C° 0 mm 2 mps 751 mmHg 78%
07:00 +29°C° 0 mm 3 mps 752 mmHg 70%
08:00 +31°C° 0 mm 3 mps 752 mmHg 62%
09:00 +34°C° 0 mm 4 mps 752 mmHg 57%
10:00 +35°C° 0 mm 4 mps 752 mmHg 52%
11:00 +37°C° 0 mm 5 mps 752 mmHg 47%
12:00 +37°C° 0 mm 5 mps 751 mmHg 47%
13:00 +37°C° 0 mm 5 mps 751 mmHg 48%
14:00 +36°C° 0 mm 5 mps 751 mmHg 48%
15:00 +36°C° 0 mm 5 mps 751 mmHg 51%
16:00 +35°C° 0 mm 4 mps 751 mmHg 55%
17:00 +34°C° 0 mm 4 mps 751 mmHg 58%
18:00 +31°C° 0 mm 3 mps 751 mmHg 69%
19:00 +29°C° 0 mm 2 mps 751 mmHg 79%
20:00 +28°C° 0 mm 1 mps 751 mmHg 89%
21:00 +27°C° 0 mm 1 mps 751 mmHg 88%
22:00 +27°C° 0 mm 1 mps 751 mmHg 88%
23:00 +27°C° 0 mm 1 mps 751 mmHg 87%
Show more